カタログに戻る

STARLINK-31067

運用中通信VLEO
NORAD 58608·PAYLOAD·🇺🇸 United States

打ち上げ Dec 19, 2023 から Cape Canaveral Space Force Station

Loading…

次のパス (今後24時間)

TLE

最新Source: CelesTrak SupGP

元期: Sep 14, 2026, 20:56 UTC

1 58608C 23200V   26257.87270833 -.00000191  00000+0 -69350-5 0  2571
2 58608  42.9996 180.5060 0001374 263.8457  78.7452 15.27582093    14

AllMySatでSTARLINK-31067をリアルタイム追跡

Download on the App Store